Location: Newark
(43.4306°N, 0.3089°E)
Time: 15:22:58
(UTC+00:00)

S-56A Canister/Altair - Pass Details

Date: 22 August 2019
Orbit: 633 x 2499 km, 38.9° (Epoch: 17 September)

Event Time Altitude Azimuth Distance (km) Brightness Sun altitude
Rises 22:07:06 0° 250° (WSW) 3,059 10.8 -29.1°
Enters shadow 22:08:53 - 246° (WSW) 2,333 10.1 -29.2°
Reaches altitude 10° 22:09:35 10° 244° (WSW) 2,055 - -29.3°
Maximum altitude 22:13:53 45° 171° (S) 868 - -29.7°
Drops below altitude 10° 22:18:17 10° 99° (E) 2,108 - -30.1°
Sets 22:20:52 0° 93° (E) 3,149 - -30.3°
